Weather History for Litchfield, MN

Change the Weather History Date:

Monday, July 29, 2013

  Actual Average Record
Temperature  
Mean Temperature 64 °F -  
Max Temperature 75 °F 82 °F 99 °F (1975)
Min Temperature 53 °F 60 °F 47 °F (1952)
Degree Days  
Heating Degree Days 1    
Growing Degree Days 14 (Base 50)    
Moisture  
Dew Point 56 °F    
Average Humidity 76    
Maximum Humidity 100    
Minimum Humidity 44    
Precipitation  
Precipitation 0.00 in - - ()
Sea Level Pressure  
Sea Level Pressure 30.10 in    
Wind  
Wind Speed 2 mph (SE)    
Max Wind Speed 9 mph    
Max Gust Speed -    
Visibility 10 miles    
Events Rain    
Averages and records for this station are not official NWS values.
T = Trace of Precipitation, MM = Missing Value Source: NWS Daily Summary

Daily Weather History Graph

Daily Weather History Graph

Search for Another Location

Airport:

Trip Planner

Search our weather history database for the weather conditions in past years. The results will help you decide how hot, cold, wet, or windy it might be!

Date:

Astronomy

Jul. 29, 2013 Rise Set
Actual Time 6:00 AM CDT 8:48 PM CDT
Civil Twilight 5:25 AM CDT 9:22 PM CDT
Nautical Twilight 4:42 AM CDT 10:05 PM CDT
Astronomical Twilight 3:51 AM CDT 10:55 PM CDT
Moon No Moon Rise 2:06 PM CDT (7/29)
Length of Visible Light 15h 56m
Length of Day
14h 48m
Waning Gibbous, 50% of the Moon is Illuminated
Jul 29
Waning Gibbous
Jul 29
Last Quarter
Aug 6
New
Aug 14
First Quarter
Aug 20
Full

Hourly Weather History & Observations

Time (CDT) Temp. Dew Point Humidity Pressure Visibility Wind Dir Wind Speed Gust Speed Precip Events Conditions
12:12 AM 55.4 °F 53.6 °F 94% 30.08 in 10.0 mi Calm Calm - N/A   Unknown
12:33 AM 57.2 °F 55.4 °F 94% 30.08 in 10.0 mi Calm Calm - N/A   Unknown
12:53 AM 55.4 °F 53.6 °F 94% 30.08 in 10.0 mi Calm Calm - N/A   Unknown
1:13 AM 55.4 °F 55.4 °F 100% 30.08 in 10.0 mi Calm Calm - N/A   Clear
1:33 AM 55.4 °F 55.4 °F 100% 30.09 in 10.0 mi Calm Calm - N/A   Unknown
1:52 AM 55.4 °F 53.6 °F 94% 30.08 in 10.0 mi Calm Calm - N/A   Clear
2:13 AM 53.6 °F 53.6 °F 100% 30.08 in 10.0 mi Calm Calm - N/A   Unknown
2:33 AM 55.4 °F 53.6 °F 94% 30.08 in 10.0 mi Calm Calm - N/A   Scattered Clouds
2:52 AM 55.4 °F 53.6 °F 94% 30.09 in 10.0 mi Calm Calm - N/A   Unknown
3:13 AM 53.6 °F 53.6 °F 100% 30.08 in 10.0 mi Calm Calm - N/A   Clear
3:32 AM 53.6 °F 53.6 °F 100% 30.08 in 10.0 mi SE 3.5 mph - N/A   Unknown
3:53 AM 55.4 °F 55.4 °F 100% 30.09 in 10.0 mi Calm Calm - N/A   Clear
4:13 AM 53.6 °F 53.6 °F 100% 30.09 in 10.0 mi SSE 3.5 mph - N/A   Scattered Clouds
4:32 AM 53.6 °F 53.6 °F 100% 30.09 in 10.0 mi Calm Calm - N/A   Scattered Clouds
4:53 AM 53.6 °F 53.6 °F 100% 30.09 in 10.0 mi Calm Calm - N/A   Unknown
5:13 AM 53.6 °F 53.6 °F 100% 30.09 in 10.0 mi Calm Calm - N/A   Scattered Clouds
5:32 AM 55.4 °F 53.6 °F 94% 30.09 in 10.0 mi Calm Calm - N/A   Unknown
5:53 AM 55.4 °F 53.6 °F 94% 30.09 in 10.0 mi Calm Calm - N/A   Scattered Clouds
6:13 AM 53.6 °F 53.6 °F 100% 30.09 in 10.0 mi Calm Calm - N/A   Unknown
6:32 AM 57.2 °F 55.4 °F 94% 30.10 in 10.0 mi Calm Calm - N/A   Unknown
6:53 AM 57.2 °F 55.4 °F 94% 30.09 in 10.0 mi Calm Calm - N/A   Clear
7:13 AM 59.0 °F 57.2 °F 94% 30.10 in 10.0 mi Calm Calm - N/A   Unknown
7:33 AM 60.8 °F 55.4 °F 82% 30.11 in 10.0 mi Calm Calm - N/A   Unknown
7:53 AM 60.8 °F 57.2 °F 88% 30.11 in 10.0 mi Calm Calm - N/A   Clear
8:12 AM 62.6 °F 57.2 °F 82% 30.11 in 10.0 mi ESE 3.5 mph - N/A   Clear
8:33 AM 64.4 °F 57.2 °F 77% 30.12 in 10.0 mi Calm Calm - N/A   Clear
8:53 AM 64.4 °F 57.2 °F 77% 30.12 in 10.0 mi Calm Calm - N/A   Clear
9:13 AM 66.2 °F 57.2 °F 73% 30.13 in 10.0 mi Calm Calm - N/A   Clear
9:33 AM 66.2 °F 57.2 °F 73% 30.13 in 10.0 mi SE 3.5 mph - N/A   Clear
9:53 AM 68.0 °F 57.2 °F 68% 30.13 in 10.0 mi SE 5.8 mph - N/A   Clear
10:13 AM 68.0 °F 57.2 °F 68% 30.13 in 10.0 mi SSE 3.5 mph - N/A   Clear
10:33 AM 69.8 °F 57.2 °F 64% 30.13 in 10.0 mi Calm Calm - N/A   Clear
10:53 AM 69.8 °F 57.2 °F 64% 30.13 in 10.0 mi South 5.8 mph - N/A   Clear
11:12 AM 71.6 °F 57.2 °F 60% 30.13 in 10.0 mi SSE 5.8 mph - N/A   Clear
11:33 AM 71.6 °F 57.2 °F 60% 30.12 in 10.0 mi SE 4.6 mph - N/A   Scattered Clouds
11:53 AM 73.4 °F 55.4 °F 53% 30.12 in 10.0 mi SE 9.2 mph - N/A   Scattered Clouds
12:12 PM 73.4 °F 55.4 °F 53% 30.11 in 10.0 mi SSE 6.9 mph - N/A   Scattered Clouds
12:33 PM 73.4 °F 55.4 °F 53% 30.10 in 10.0 mi SSE 5.8 mph - N/A   Scattered Clouds
12:53 PM 73.4 °F 51.8 °F 47% 30.10 in 10.0 mi SE 9.2 mph - N/A   Scattered Clouds
1:12 PM 71.6 °F 53.6 °F 53% 30.10 in 10.0 mi SE 4.6 mph - N/A   Scattered Clouds
1:33 PM 75.2 °F 53.6 °F 47% 30.10 in 10.0 mi SE 4.6 mph - N/A   Mostly Cloudy
1:53 PM 73.4 °F 53.6 °F 50% 30.10 in 10.0 mi SSE 4.6 mph - N/A   Mostly Cloudy
2:12 PM 75.2 °F 53.6 °F 47% 30.10 in 10.0 mi South 4.6 mph - N/A   Mostly Cloudy
2:33 PM 75.2 °F 51.8 °F 44% 30.09 in 10.0 mi SSE 4.6 mph - N/A   Scattered Clouds
2:52 PM 73.4 °F 51.8 °F 47% 30.09 in 10.0 mi SSE 8.1 mph - N/A   Scattered Clouds
3:13 PM 73.4 °F 51.8 °F 47% 30.09 in 10.0 mi SSE 4.6 mph - N/A   Mostly Cloudy
3:32 PM 73.4 °F 53.6 °F 50% 30.09 in 10.0 mi SSE 3.5 mph - N/A   Mostly Cloudy
3:53 PM 75.2 °F 53.6 °F 47% 30.09 in 10.0 mi SSE 5.8 mph - N/A   Scattered Clouds
4:13 PM 75.2 °F 53.6 °F 47% 30.09 in 10.0 mi SSE 4.6 mph - N/A   Clear
4:32 PM 75.2 °F 51.8 °F 44% 30.09 in 10.0 mi SSE 6.9 mph - N/A   Scattered Clouds
4:53 PM 75.2 °F 53.6 °F 47% 30.09 in 10.0 mi SSE 4.6 mph - N/A   Mostly Cloudy
5:13 PM 73.4 °F 53.6 °F 50% 30.09 in 10.0 mi SSE 4.6 mph - N/A   Scattered Clouds
5:32 PM 73.4 °F 53.6 °F 50% 30.09 in 10.0 mi Calm Calm - N/A   Clear
5:53 PM 73.4 °F 53.6 °F 50% 30.09 in 10.0 mi SSE 3.5 mph - N/A   Clear
6:13 PM 71.6 °F 53.6 °F 53% 30.09 in 10.0 mi SSE 3.5 mph - N/A   Clear
6:32 PM 73.4 °F 53.6 °F 50% 30.09 in 10.0 mi Calm Calm - N/A Rain Light Rain
6:53 PM 71.6 °F 55.4 °F 57% 30.09 in 10.0 mi SE 4.6 mph - N/A   Mostly Cloudy
7:13 PM 71.6 °F 55.4 °F 57% 30.08 in 10.0 mi ESE 4.6 mph - N/A   Overcast
7:32 PM 71.6 °F 57.2 °F 60% 30.08 in 10.0 mi ESE 4.6 mph - N/A   Mostly Cloudy
7:53 PM 71.6 °F 57.2 °F 60% 30.08 in 10.0 mi SE 3.5 mph - N/A   Mostly Cloudy
8:12 PM 68.0 °F 62.6 °F 83% 30.08 in 10.0 mi ESE 3.5 mph - N/A   Light Drizzle
8:33 PM 68.0 °F 62.6 °F 83% 30.08 in 10.0 mi SE 3.5 mph - N/A   Mostly Cloudy
8:52 PM 66.2 °F 60.8 °F 83% 30.08 in 10.0 mi Calm Calm - N/A Rain Light Rain
9:13 PM 66.2 °F 60.8 °F 83% 30.09 in 7.0 mi Calm Calm - N/A Rain Light Rain
9:33 PM 64.4 °F 62.6 °F 94% 30.09 in 10.0 mi East 3.5 mph - N/A Rain Rain
9:52 PM 64.4 °F 62.6 °F 94% 30.10 in 10.0 mi ENE 3.5 mph - N/A Rain Light Rain
10:13 PM 64.4 °F 62.6 °F 94% 30.11 in 10.0 mi Calm Calm - N/A Rain Rain
10:33 PM 64.4 °F 62.6 °F 94% 30.11 in 5.0 mi NE 3.5 mph - N/A Rain Light Rain
10:52 PM 62.6 °F 62.6 °F 100% 30.12 in 3.0 mi East 3.5 mph - N/A Rain Heavy Rain
11:13 PM 62.6 °F 62.6 °F 100% 30.10 in 10.0 mi ENE 6.9 mph - N/A   Overcast
11:33 PM 62.6 °F 62.6 °F 100% 30.10 in 10.0 mi ENE 5.8 mph - N/A   Drizzle
11:53 PM 62.6 °F 62.6 °F 100% 30.09 in 10.0 mi East 6.9 mph - N/A   Light Drizzle